User: anonymous   Login
Location: Unspecified
(0.0000°N, 0.0000°E)
Time: 18:45:30
(UTC+00:00)
Language:

USA 200 - Orbit

View from above orbital plane
View from above orbital plane
View from above satellite
View from above satellite

Ground track
Ground track

The orbit data is extracted from the following two-line orbital elements,

1 32706U 08010A   16073.74532111 -.00000476  00000-0  00000-0 0    09
2 32706  63.1336  48.4091 7128637 269.4172  16.0901  2.00615000    04
Epoch (UTC): 13 March 2016 17:53:15
Eccentricity: 0.7128637
inclination: 63.1336°
perigee height: 1247 km
apogee height: 39108 km
right ascension of ascending node: 48.4091°
argument of perigee: 269.4172°
revolutions per day: 2.00615000
mean anomaly at epoch: 16.0901°
orbit number at epoch: 0

The dashed part of the orbit path shows where the satellite is in the earth's shadow,  

DLR